SCP
-0 0 0 0 0 0 0 0 0 0 0 0 0 0 0 0 0 0 0 0 0 0 0 0 0 0 0 0 0 0 0 0 0 0 0 0 0 0 0 0 0 0 0 0
0 0 0 0 0 0 0 0 0 0 0 0 0 0 0 0 0 0 0 0 0 0 0 0 0 0 0 0 0 0 0 0 0 0 0 0 0 0 0 0 0 0 0 0
0 0 0 0 0 0 0 0 0 0 0 0 0 0 0 0 0 0 0 0 0 0 0 0 0 0 0 0 0 0 0 0 0 0 0 0 0 0 0 0 0 0 0 0
0 0 0 0 0 0 0 0 0 0 0 0 0 0 0 0 0 0 0 0 0 0 0 0 0 0 0 0 0 0 0 0 0 0 0 0 0 0 0 0 0 0 0 0
0 0 0 0 0 0 0 0 0 0 0 0 0 0 0 0 0 0 0 0 0 0 0 0 0 0 0 0 -0 0 0 0 0 0 0 0 0 0 0 0 0 0 0 0
0 0 0 0 0 0 0 0 0 0 0 0 0 0 0 0 0 0 0 0 0 0 0 0 0 0 0 0 0 0 0 0 0 0 0 0 0 0 0 0 0 0 0 -0
0 0 0 0 0 0 0 0 0 0 0 0 0 0 0 0 0 0 0 0 0 0 0 0 0 0 0 0 0 0 0 0 0 0 0 0 0 0 0 0 0 0 0 0
0 0 0 0 0 0 0 0 0 0 0 0 0 0 0 0 0 0 0 0 0 0 0 0 0 0 0 0 0 0 0 0 0 0 0 0 0 0 0 0 0 0 0 0
0 0 0 0 0 0 0 0 0 0 0 0 0 0 0 0 0 0 0 0 0 0 0 0 0 0 0 -0 0 0 0 0 0 0 0 0 0 0 0 0 0 0 0 0
0 0 0 0 0 0 0 0 0 0 0 0 0 0 0 0 0 0 0 0 0 0 0 0 0 0 0 0 -0 0 0 0 0 0 0 0 0 0 0 0 0 0 0 0
0 0 0 0 0 0 0 0 0 0 0 0 0 0 0 0 0 0 0 0 0 0 0 0 0 0 0 0 0 0 0 0 0 0 0 0 0 0 0 0 0 0 0 0
0 0 0 0 0 0 0 0 0 0 0 0 0 0 0 0 0 0 0 0 0 0 0 0 0 0 0 -0 -0 0 0 0 0 0 0 0 0 0 0 0 0 0 0 0
0 0 0 0 0 0 0 0 0 0 0 0 0 0 0 0 0 0 0 0 0 0 0 0 0 0 0 0 -0 0 0 0 0 0 0 0 0 0 0 0 0 0 0 0
0 0 0 0 0 0 0 0 0 0 0 0 0 0 0 0 0 0 0 0 0 0 0 0 -0 -0 -0 -0 0 0 0 0 0 0 0 0 0 0 0 0 0 0 0 0
0 0 0 0 0 0 0 0 0 0 0 0 0 0 0 0 0 0 0 0 0 0 0 0 0 -0 0 0 0 0 0 0 0 0 0 0 0 0 0 0 0 0 0 0
0 0 0 0 0 0 0 0 0 0 0 0 0 0 0 0 0 0 0 0 0 0 0 0 0 0 0 0 0 0 0 0 0 0 0 0 0 0 0 0 0 0 0 0
0 0 0 0 0 0 0 0 0 0 0 0 0 0 0 -0 -0 0 0 0 0 0 0 0 0 0 0 0 0 0 0 0 0 0 0 0 0 0 0 0 0 0 0 0
0 0 0 0 0 0 0 0 0 0 0 0 0 0 0 0 0 0 0 0 0 0 0 0 0 0 0 0 0 0 0 0 0 0 0 0 0 0 0 0 0 0 0 0
0 0 0 0 0 0 0 0 0 0 0 0 0 0 0 0 0 0 0 0 0 0 0 0 0 0 0 0 0 0 0 0 0 0 0 0 0 0 0 0 0 0 0 0
-0 0 0 0 0 0 0 0 0 0 0 0 0 0 0 0 0 0 -0 -0 -0 0 0 0 0 0 0 0 0 0 0 0 0 0 0 0 0 0 0 0 0 0 0 0
0 0 0 0 0 0 0 0 0 0 0 0 0 0 0 0 0 0 0 -0 -0 -0 0 -0 0 0 0 0 0 0 0 0 0 0 0 0 0 0 0 0 0 0 0 0
0 0 0 0 0 0 0 0 0 0 0 0 0 0 0 0 0 0 0 -0 0 -0 -0 -0 0 0 0 0 0 0 0 0 0 0 0 0 0 0 0 0 0 0 0 0
0 0 0 0 0 0 0 0 0 0 0 0 0 0 0 0 0 0 0 0 0 -0 0 -0 -0 0 0 0 0 0 0 0 0 0 0 0 0 0 0 0 0 0 0 0
0 0 0 0 0 0 0 0 0 0 0 0 0 0 0 0 0 0 0 0 0 0 0 0 0 0 0 0 0 0 0 0 0 0 0 0 0 0 0 0 0 0 0 0
0 0 0 0 0 0 0 0 0 0 0 0 0 0 0 0 0 0 0 0 0 0 0 -0 0 0 0 0 0 0 0 0 0 0 0 0 0 0 0 0 0 0 0 0
0 0 0 0 0 0 0 0 0 0 0 0 0 0 0 0 0 0 0 0 0 0 0 0 0 0 0 0 0 0 0 0 0 0 0 0 0 0 0 0 0 0 0 0
0 0 0 0 0 0 0 0 0 0 0 0 0 0 0 0 0 0 0 0 0 -0 -0 -0 -0 0 0 0 0 0 0 0 0 0 0 0 0 0 0 0 0 0 0 0
Wind_Speed_500mb
98 108 142 137 138 136 115 43 11 92 101 21 13 17 21 16 12 10 8 10 13 12 13 21 30 23 19 42 46 36 30 10 19 28 12 4 27 24 39 20 37 6 3 21
97 139 127 141 142 135 103 29 44 81 92 10 19 12 11 8 9 9 7 8 6 7 14 10 13 16 3 31 30 22 27 16 18 6 6 8 14 30 39 37 4 37 24 20
122 127 135 137 136 110 91 38 13 17 37 17 34 32 16 10 14 9 11 12 11 10 6 8 11 10 6 5 34 49 29 11 20 26 9 10 26 37 36 46 25 45 39 38
121 128 134 133 114 93 89 21 7 14 16 9 23 23 24 15 9 8 13 8 8 14 8 6 10 9 2 6 13 6 12 24 28 29 16 6 21 38 50 49 67 34 52 42
119 126 127 121 98 88 48 19 19 22 13 39 32 16 16 29 11 14 9 14 13 9 13 19 14 14 12 10 10 16 12 14 16 31 26 24 25 32 32 51 58 49 54 35
113 121 114 114 91 66 23 32 54 44 17 8 14 10 17 27 17 4 29 24 14 17 28 20 19 15 11 6 11 10 8 4 14 39 23 29 29 56 48 47 55 60 53 75
82 98 102 99 78 42 38 68 51 21 7 13 9 15 8 21 30 14 12 42 16 13 30 26 26 36 33 29 22 26 11 11 4 17 18 35 46 31 57 61 61 58 58 34
92 92 106 86 62 44 46 59 47 18 9 10 11 24 12 21 29 14 19 27 36 23 17 6 5 6 6 20 34 35 34 15 8 10 24 8 14 18 52 44 64 58 59 62
95 89 84 82 68 51 66 47 36 23 15 11 17 13 18 10 9 6 5 16 23 26 6 6 12 10 13 10 9 41 37 36 15 18 24 17 26 13 53 22 40 63 68 52
98 82 75 72 64 53 47 47 35 34 20 15 31 13 18 18 12 7 9 12 12 29 9 7 7 8 10 7 11 13 15 24 38 32 24 17 10 14 66 29 29 30 77 71
85 84 77 70 64 50 49 45 33 28 18 25 18 20 13 24 26 10 19 11 7 8 15 8 9 9 13 8 10 11 17 11 20 18 13 28 21 48 44 23 6 9 19 62
63 63 60 47 38 28 19 36 30 26 21 17 22 22 20 24 34 30 40 12 12 20 10 10 6 8 6 10 9 8 11 15 9 21 13 4 42 19 8 2 5 7 18 28
50 45 41 34 28 28 31 40 36 29 29 21 11 8 23 22 24 33 16 18 13 12 12 5 6 13 6 10 12 6 9 10 6 5 4 12 22 20 22 14 4 7 13 20
55 50 45 41 35 32 30 38 32 22 21 10 6 7 8 7 21 26 31 19 12 16 14 9 5 6 8 4 5 3 3 16 10 3 10 1 31 41 32 14 7 9 11 18
51 47 44 41 38 36 33 34 25 17 10 11 10 15 7 6 2 14 26 25 23 13 8 6 6 6 4 4 7 9 19 11 8 6 20 18 11 38 25 9 17 15 23 31
49 47 47 44 44 42 40 16 18 17 15 13 6 7 10 13 3 7 16 25 23 14 10 6 9 2 12 5 6 17 26 26 21 18 45 32 30 16 19 14 18 15 26 36
43 42 41 33 25 20 8 14 10 12 10 7 7 5 4 14 4 1 4 16 15 16 9 6 4 17 16 6 6 38 42 43 27 34 39 7 25 17 17 20 24 21 30 36
48 46 46 41 40 39 38 26 15 12 12 12 6 1 3 14 5 2 3 5 8 7 2 9 7 11 15 10 29 40 45 45 8 34 26 20 18 10 13 21 22 29 37 39
37 37 34 29 23 16 15 20 23 23 15 10 8 5 4 15 11 6 3 3 1 6 5 6 8 8 12 14 34 38 41 36 47 35 18 21 24 19 18 23 24 28 33 33
19 12 10 12 9 10 11 6 7 11 16 13 5 12 4 12 13 9 10 8 2 3 5 13 9 6 10 30 28 30 36 33 35 34 28 34 27 27 22 22 21 25 30 32
7 9 10 11 8 6 6 9 14 16 9 21 18 11 6 16 5 3 6 4 4 3 3 6 4 4 14 39 34 30 30 27 23 18 17 16 15 13 12 20 23 25 28 29
21 21 18 8 10 10 13 3 8 11 1 22 12 15 12 10 8 4 6 1 5 2 4 7 4 4 26 38 39 33 29 25 20 17 15 14 12 13 15 21 27 28 30 32
15 9 9 17 18 20 11 7 8 7 20 21 25 7 15 10 4 4 5 9 3 11 8 5 1 13 32 35 33 25 21 18 16 16 19 20 21 20 23 27 31 33 35 35
14 15 15 9 10 5 5 6 6 9 12 35 33 17 7 9 9 4 9 2 6 7 6 4 4 19 27 27 25 24 23 21 21 23 23 24 25 27 27 28 29 29 33 34
14 15 8 6 1 5 5 7 12 7 19 22 12 12 6 6 7 6 5 10 7 4 2 1 8 18 21 23 22 21 22 22 22 22 22 22 23 24 25 27 28 29 29 27
13 19 7 17 3 9 12 15 10 18 21 6 4 2 7 8 4 11 4 2 2 4 3 3 11 13 18 21 20 21 20 20 21 21 21 20 19 21 23 20 21 22 21 19
12 13 23 15 4 7 13 19 19 23 10 3 4 8 2 3 7 7 5 2 1 3 2 5 7 12 17 18 18 18 18 19 19 19 19 17 17 17 14 15 18 17 16 15
Wind_Direction_500mb
183 167 154 160 157 152 147 131 112 159 159 153 173 175 143 134 145 110 95 92 95 138 169 190 194 201 197 199 185 195 199 231 228 219 175 212 242 216 201 207 215 223 188 250
147 162 157 153 156 160 144 106 114 157 159 145 165 135 142 123 126 128 133 116 137 168 148 149 178 193 294 180 180 186 181 220 232 208 266 206 229 223 207 223 123 223 226 246
147 150 152 155 153 152 143 121 131 115 160 138 157 158 167 108 111 105 105 115 91 97 135 45 157 168 267 177 199 210 194 199 226 227 225 147 209 201 222 211 225 235 228 247
148 151 155 152 150 149 137 115 94 139 160 176 156 146 156 127 125 101 126 47 147 140 113 118 182 183 256 271 197 153 222 231 215 237 260 313 230 219 215 209 224 218 237 233
152 151 152 152 145 153 147 115 138 101 88 125 136 146 179 165 145 135 181 134 161 155 163 183 176 159 189 193 191 176 190 256 219 238 238 228 237 241 234 222 228 231 247 251
153 153 159 160 153 157 129 119 133 130 130 91 132 181 152 185 124 64 159 141 148 198 217 206 230 230 248 224 174 162 130 306 251 257 224 235 237 230 220 231 235 219 229 234
155 156 164 166 166 162 142 134 137 106 123 120 144 133 102 157 183 132 158 165 159 224 239 245 262 262 256 242 226 196 195 205 125 282 245 220 241 222 217 217 223 224 236 246
159 153 162 161 150 151 155 140 151 113 103 100 112 143 115 143 168 171 159 183 195 175 126 79 305 239 242 236 230 212 205 174 180 246 260 291 264 221 197 198 231 224 229 238
160 168 172 172 158 148 160 146 147 115 108 213 139 125 152 148 150 36 177 158 184 184 155 163 201 214 203 250 243 206 195 208 197 227 244 235 247 178 192 183 252 229 227 236
149 137 133 129 135 152 157 117 131 128 104 140 155 165 175 161 154 131 133 160 156 193 172 216 198 236 187 207 207 165 180 209 208 210 239 278 238 186 142 164 241 200 211 221
126 128 131 134 137 130 153 122 128 122 101 136 159 147 142 165 173 147 160 108 205 160 193 189 214 224 219 180 226 177 175 216 202 207 188 247 174 148 164 204 89 106 193 219
141 146 145 153 161 154 137 128 135 126 107 128 172 176 172 190 191 187 167 189 173 169 187 211 214 222 220 193 240 182 203 195 210 206 201 274 177 339 191 20 204 232 240 235
142 152 159 163 158 158 159 141 133 123 104 93 98 159 205 197 196 197 173 205 184 194 217 257 231 235 166 203 224 87 135 343 226 172 19 341 37 35 24 10 42 238 238 217
129 132 136 139 143 142 142 145 138 126 114 110 149 138 155 190 215 211 221 220 201 216 233 229 257 244 210 270 23 89 18 321 332 48 11 22 45 19 0 25 64 103 116 176
116 120 119 115 120 123 136 131 116 123 118 128 143 132 101 353 269 229 227 233 243 238 226 203 237 260 211 95 100 34 358 8 348 39 6 316 351 341 10 59 80 105 136 143
103 106 114 116 120 127 121 82 84 111 118 117 111 112 57 11 297 279 251 226 235 224 225 227 221 121 336 115 86 40 2 344 333 316 316 301 316 335 27 64 86 117 142 145
100 103 106 110 127 149 89 99 128 110 109 97 96 14 63 8 20 248 214 214 222 221 249 236 78 18 28 54 73 347 343 333 330 341 357 61 1 338 24 78 101 130 137 143
101 101 103 100 97 94 83 85 100 94 84 72 97 243 59 8 357 348 339 213 208 210 338 45 41 29 44 60 343 343 344 341 315 355 14 336 314 344 68 99 120 140 131 132
100 101 99 92 77 56 67 83 71 61 68 98 71 104 212 352 19 318 314 316 102 32 50 45 48 20 47 343 338 340 346 349 325 336 1 22 34 37 81 111 120 122 119 132
97 91 69 65 39 84 110 51 22 34 36 50 64 344 349 350 1 355 7 356 342 62 57 83 55 75 125 3 348 344 343 341 353 4 359 1 16 25 50 88 107 117 120 125
76 60 67 96 65 79 62 62 43 350 28 12 354 358 318 14 45 282 39 290 324 73 36 93 63 40 356 343 350 358 355 359 6 10 358 348 348 7 52 90 106 116 121 126
84 101 104 57 38 60 73 5 1 40 24 340 328 322 333 328 322 28 337 143 33 50 13 75 52 18 344 349 357 4 6 10 17 27 34 44 56 74 85 94 97 105 112 115
61 53 56 10 353 43 58 346 338 18 350 4 342 322 342 327 296 301 53 51 36 116 42 83 68 340 347 353 358 8 14 23 34 47 57 63 71 80 88 93 100 105 110 108
55 38 27 60 356 36 176 190 217 313 312 326 322 282 321 331 357 320 82 290 37 61 53 360 8 344 349 355 1 8 21 35 44 51 58 64 71 76 83 87 92 96 100 102
67 43 49 59 29 47 10 321 300 283 310 326 321 283 297 336 45 19 30 37 59 70 203 18 340 348 354 360 7 16 28 37 46 54 63 66 70 71 76 80 81 83 85 87
63 51 63 10 55 355 5 346 341 334 334 325 265 283 54 28 83 49 14 38 118 168 159 332 341 355 4 7 14 21 26 37 46 51 55 59 65 65 62 68 75 77 77 76
52 56 32 35 8 299 333 335 329 339 349 26 326 53 182 321 55 28 350 54 187 107 277 325 359 12 15 18 22 24 30 39 46 52 55 57 57 54 52 56 56 52 50 43
Wind_Speed_850mb
98 108 142 137 138 136 115 43 11 92 101 21 13 17 21 16 12 10 8 10 13 12 13 21 30 23 19 42 46 36 30 10 19 28 12 4 27 24 39 20 37 6 3 21
97 139 127 141 142 135 103 29 44 81 92 10 19 12 11 8 9 9 7 8 6 7 14 10 13 16 3 31 30 22 27 16 18 6 6 8 14 30 39 37 4 37 24 20
122 127 135 137 136 110 91 38 13 17 37 17 34 32 16 10 14 9 11 12 11 10 6 8 11 10 6 5 34 49 29 11 20 26 9 10 26 37 36 46 25 45 39 38
121 128 134 133 114 93 89 21 7 14 16 9 23 23 24 15 9 8 13 8 8 14 8 6 10 9 2 6 13 6 12 24 28 29 16 6 21 38 50 49 67 34 52 42
119 126 127 121 98 88 48 19 19 22 13 39 32 16 16 29 11 14 9 14 13 9 13 19 14 14 12 10 10 16 12 14 16 31 26 24 25 32 32 51 58 49 54 35
113 121 114 114 91 66 23 32 54 44 17 8 14 10 17 27 17 4 29 24 14 17 28 20 19 15 11 6 11 10 8 4 14 39 23 29 29 56 48 47 55 60 53 75
82 98 102 99 78 42 38 68 51 21 7 13 9 15 8 21 30 14 12 42 16 13 30 26 26 36 33 29 22 26 11 11 4 17 18 35 46 31 57 61 61 58 58 34
92 92 106 86 62 44 46 59 47 18 9 10 11 24 12 21 29 14 19 27 36 23 17 6 5 6 6 20 34 35 34 15 8 10 24 8 14 18 52 44 64 58 59 62
95 89 84 82 68 51 66 47 36 23 15 11 17 13 18 10 9 6 5 16 23 26 6 6 12 10 13 10 9 41 37 36 15 18 24 17 26 13 53 22 40 63 68 52
98 82 75 72 64 53 47 47 35 34 20 15 31 13 18 18 12 7 9 12 12 29 9 7 7 8 10 7 11 13 15 24 38 32 24 17 10 14 66 29 29 30 77 71
85 84 77 70 64 50 49 45 33 28 18 25 18 20 13 24 26 10 19 11 7 8 15 8 9 9 13 8 10 11 17 11 20 18 13 28 21 48 44 23 6 9 19 62
63 63 60 47 38 28 19 36 30 26 21 17 22 22 20 24 34 30 40 12 12 20 10 10 6 8 6 10 9 8 11 15 9 21 13 4 42 19 8 2 5 7 18 28
50 45 41 34 28 28 31 40 36 29 29 21 11 8 23 22 24 33 16 18 13 12 12 5 6 13 6 10 12 6 9 10 6 5 4 12 22 20 22 14 4 7 13 20
55 50 45 41 35 32 30 38 32 22 21 10 6 7 8 7 21 26 31 19 12 16 14 9 5 6 8 4 5 3 3 16 10 3 10 1 31 41 32 14 7 9 11 18
51 47 44 41 38 36 33 34 25 17 10 11 10 15 7 6 2 14 26 25 23 13 8 6 6 6 4 4 7 9 19 11 8 6 20 18 11 38 25 9 17 15 23 31
49 47 47 44 44 42 40 16 18 17 15 13 6 7 10 13 3 7 16 25 23 14 10 6 9 2 12 5 6 17 26 26 21 18 45 32 30 16 19 14 18 15 26 36
43 42 41 33 25 20 8 14 10 12 10 7 7 5 4 14 4 1 4 16 15 16 9 6 4 17 16 6 6 38 42 43 27 34 39 7 25 17 17 20 24 21 30 36
48 46 46 41 40 39 38 26 15 12 12 12 6 1 3 14 5 2 3 5 8 7 2 9 7 11 15 10 29 40 45 45 8 34 26 20 18 10 13 21 22 29 37 39
37 37 34 29 23 16 15 20 23 23 15 10 8 5 4 15 11 6 3 3 1 6 5 6 8 8 12 14 34 38 41 36 47 35 18 21 24 19 18 23 24 28 33 33
19 12 10 12 9 10 11 6 7 11 16 13 5 12 4 12 13 9 10 8 2 3 5 13 9 6 10 30 28 30 36 33 35 34 28 34 27 27 22 22 21 25 30 32
7 9 10 11 8 6 6 9 14 16 9 21 18 11 6 16 5 3 6 4 4 3 3 6 4 4 14 39 34 30 30 27 23 18 17 16 15 13 12 20 23 25 28 29
21 21 18 8 10 10 13 3 8 11 1 22 12 15 12 10 8 4 6 1 5 2 4 7 4 4 26 38 39 33 29 25 20 17 15 14 12 13 15 21 27 28 30 32
15 9 9 17 18 20 11 7 8 7 20 21 25 7 15 10 4 4 5 9 3 11 8 5 1 13 32 35 33 25 21 18 16 16 19 20 21 20 23 27 31 33 35 35
14 15 15 9 10 5 5 6 6 9 12 35 33 17 7 9 9 4 9 2 6 7 6 4 4 19 27 27 25 24 23 21 21 23 23 24 25 27 27 28 29 29 33 34
14 15 8 6 1 5 5 7 12 7 19 22 12 12 6 6 7 6 5 10 7 4 2 1 8 18 21 23 22 21 22 22 22 22 22 22 23 24 25 27 28 29 29 27
13 19 7 17 3 9 12 15 10 18 21 6 4 2 7 8 4 11 4 2 2 4 3 3 11 13 18 21 20 21 20 20 21 21 21 20 19 21 23 20 21 22 21 19
12 13 23 15 4 7 13 19 19 23 10 3 4 8 2 3 7 7 5 2 1 3 2 5 7 12 17 18 18 18 18 19 19 19 19 17 17 17 14 15 18 17 16 15
Wind_Direction_850mb
183 167 154 160 157 152 147 131 112 159 159 153 173 175 143 134 145 110 95 92 95 138 169 190 194 201 197 199 185 195 199 231 228 219 175 212 242 216 201 207 215 223 188 250
147 162 157 153 156 160 144 106 114 157 159 145 165 135 142 123 126 128 133 116 137 168 148 149 178 193 294 180 180 186 181 220 232 208 266 206 229 223 207 223 123 223 226 246
147 150 152 155 153 152 143 121 131 115 160 138 157 158 167 108 111 105 105 115 91 97 135 45 157 168 267 177 199 210 194 199 226 227 225 147 209 201 222 211 225 235 228 247
148 151 155 152 150 149 137 115 94 139 160 176 156 146 156 127 125 101 126 47 147 140 113 118 182 183 256 271 197 153 222 231 215 237 260 313 230 219 215 209 224 218 237 233
152 151 152 152 145 153 147 115 138 101 88 125 136 146 179 165 145 135 181 134 161 155 163 183 176 159 189 193 191 176 190 256 219 238 238 228 237 241 234 222 228 231 247 251
153 153 159 160 153 157 129 119 133 130 130 91 132 181 152 185 124 64 159 141 148 198 217 206 230 230 248 224 174 162 130 306 251 257 224 235 237 230 220 231 235 219 229 234
155 156 164 166 166 162 142 134 137 106 123 120 144 133 102 157 183 132 158 165 159 224 239 245 262 262 256 242 226 196 195 205 125 282 245 220 241 222 217 217 223 224 236 246
159 153 162 161 150 151 155 140 151 113 103 100 112 143 115 143 168 171 159 183 195 175 126 79 305 239 242 236 230 212 205 174 180 246 260 291 264 221 197 198 231 224 229 238
160 168 172 172 158 148 160 146 147 115 108 213 139 125 152 148 150 36 177 158 184 184 155 163 201 214 203 250 243 206 195 208 197 227 244 235 247 178 192 183 252 229 227 236
149 137 133 129 135 152 157 117 131 128 104 140 155 165 175 161 154 131 133 160 156 193 172 216 198 236 187 207 207 165 180 209 208 210 239 278 238 186 142 164 241 200 211 221
126 128 131 134 137 130 153 122 128 122 101 136 159 147 142 165 173 147 160 108 205 160 193 189 214 224 219 180 226 177 175 216 202 207 188 247 174 148 164 204 89 106 193 219
141 146 145 153 161 154 137 128 135 126 107 128 172 176 172 190 191 187 167 189 173 169 187 211 214 222 220 193 240 182 203 195 210 206 201 274 177 339 191 20 204 232 240 235
142 152 159 163 158 158 159 141 133 123 104 93 98 159 205 197 196 197 173 205 184 194 217 257 231 235 166 203 224 87 135 343 226 172 19 341 37 35 24 10 42 238 238 217
129 132 136 139 143 142 142 145 138 126 114 110 149 138 155 190 215 211 221 220 201 216 233 229 257 244 210 270 23 89 18 321 332 48 11 22 45 19 0 25 64 103 116 176
116 120 119 115 120 123 136 131 116 123 118 128 143 132 101 353 269 229 227 233 243 238 226 203 237 260 211 95 100 34 358 8 348 39 6 316 351 341 10 59 80 105 136 143
103 106 114 116 120 127 121 82 84 111 118 117 111 112 57 11 297 279 251 226 235 224 225 227 221 121 336 115 86 40 2 344 333 316 316 301 316 335 27 64 86 117 142 145
100 103 106 110 127 149 89 99 128 110 109 97 96 14 63 8 20 248 214 214 222 221 249 236 78 18 28 54 73 347 343 333 330 341 357 61 1 338 24 78 101 130 137 143
101 101 103 100 97 94 83 85 100 94 84 72 97 243 59 8 357 348 339 213 208 210 338 45 41 29 44 60 343 343 344 341 315 355 14 336 314 344 68 99 120 140 131 132
100 101 99 92 77 56 67 83 71 61 68 98 71 104 212 352 19 318 314 316 102 32 50 45 48 20 47 343 338 340 346 349 325 336 1 22 34 37 81 111 120 122 119 132
97 91 69 65 39 84 110 51 22 34 36 50 64 344 349 350 1 355 7 356 342 62 57 83 55 75 125 3 348 344 343 341 353 4 359 1 16 25 50 88 107 117 120 125
76 60 67 96 65 79 62 62 43 350 28 12 354 358 318 14 45 282 39 290 324 73 36 93 63 40 356 343 350 358 355 359 6 10 358 348 348 7 52 90 106 116 121 126
84 101 104 57 38 60 73 5 1 40 24 340 328 322 333 328 322 28 337 143 33 50 13 75 52 18 344 349 357 4 6 10 17 27 34 44 56 74 85 94 97 105 112 115
61 53 56 10 353 43 58 346 338 18 350 4 342 322 342 327 296 301 53 51 36 116 42 83 68 340 347 353 358 8 14 23 34 47 57 63 71 80 88 93 100 105 110 108
55 38 27 60 356 36 176 190 217 313 312 326 322 282 321 331 357 320 82 290 37 61 53 360 8 344 349 355 1 8 21 35 44 51 58 64 71 76 83 87 92 96 100 102
67 43 49 59 29 47 10 321 300 283 310 326 321 283 297 336 45 19 30 37 59 70 203 18 340 348 354 360 7 16 28 37 46 54 63 66 70 71 76 80 81 83 85 87
63 51 63 10 55 355 5 346 341 334 334 325 265 283 54 28 83 49 14 38 118 168 159 332 341 355 4 7 14 21 26 37 46 51 55 59 65 65 62 68 75 77 77 76
52 56 32 35 8 299 333 335 329 339 349 26 326 53 182 321 55 28 350 54 187 107 277 325 359 12 15 18 22 24 30 39 46 52 55 57 57 54 52 56 56 52 50 43